Location: Newark
(52.3500°N, 175.9667°E)
Time: 22:03:54
(UTC+00:00)

Altair - Pass Details

Date: 24 April 2021
Orbit: 1501 x 1683 km, 47.2° (Epoch: 05 May)

Event Time Altitude Azimuth Distance (km) Brightness Sun altitude
Rises 15:05:29 0° 189° (S) 4,907 - -14.9°
Exits shadow 15:07:34 - 182° (S) 4,389 9.4 -14.7°
Reaches altitude 10° 15:09:45 10° 174° (S) 3,904 9.3 -14.5°
Maximum altitude 15:16:23 20° 131° (SE) 3,118 9.2 -13.7°
Drops below altitude 10° 15:22:52 10° 89° (E) 3,828 10.3 -13.0°
Sets 15:26:57 0° 74° (ENE) 4,784 11.3 -12.6°
